Location: Sungai Kamana Besar
(2.6333°N, 113.4333°E)
Time: 05:25:14
(UTC+00:00)

ARIANE DEB (SYLDA) - Pass Details

Date: 29 May 2022
Orbit: 587 x 35699 km, 7.0° (Epoch: 25 June)

Event Time Altitude Azimuth Distance (km) Brightness Sun altitude
Exits shadow 19:51:18 64° 204° (SSW) 1,896 4.1 -33.8°
Maximum altitude 19:52:27 70° 165° (SSE) 2,072 4.4 -33.5°
Drops below altitude 10° 05:36:52 10° 92° (E) 12,525 8.6 63.9°
Sets 05:43:39 0° 93° (E) 11,757 8.3 62.7°
